Tracking 29892 objects as of 21-Nov-2024
HD Live streaming from Space Station
objects crossing your sky now

FENGYUN 1C DEB

Track FENGYUN 1C DEB now!
10-day predictions


NORAD ID: 29819
Int'l Code: 1999-025DM
Perigee: 756.2 km
Apogee: 1,035.2 km
Inclination: 98.7 °
Period: 102.7 minutes
Semi major axis: 7266 km
RCS: 0.055 m2 (small)
Launch date: May 10, 1999
Source: People's Republic of China (PRC)
Launch site: Taiyaun Space Center, China (TSC)

Note: This is SATELLITE DEBRIS
Your satellite tracking list
Your tracking list is empty




NASA's NSSDC Master Catalog

Two Line Element Set (TLE):
1 29819U 99025DM  24325.21883281  .00001111  00000-0  64851-3 0  9994
2 29819  98.7006 319.7562 0191991  70.6633 349.3625 14.01512704911906
Source of the keplerian elements: AFSPC